Volver al catálogo

OV1-20/OV1-21 AKM

ActivoPO
NORAD 5395·ROCKET BODY·🇺🇸 United States

Lanzado Aug 7, 1971 desde Vandenberg Space Force Base

Loading…

Próximos Pases (próximas 24 horas)

TLE

ActualizadoSource: Space-Track

Época: Sep 14, 2026, 14:18 UTC

1 05395U 71067K   26257.59634595  .00000526  00000-0  15005-3 0  9998
2 05395  87.6128 292.8136 0056873 103.7129 257.0413 14.42510614870475

Sigue OV1-20/OV1-21 AKM en tiempo real con AllMySat

Download on the App Store